カタログに戻る

OV1-4

運用中軍事LEO
NORAD 2121·PAYLOAD·🇺🇸 United States

打ち上げ Mar 30, 1966 から Vandenberg Space Force Base

Loading…

次のパス (今後24時間)

TLE

最新Source: Space-Track

元期: Sep 13, 2026, 23:22 UTC

1 02121U 66025A   26256.97399275  .00000290  00000-0  19811-4 0  9992
2 02121 144.5042  90.0338 0083768 279.2994  79.8223 13.87334454 63478

AllMySatでOV1-4をリアルタイム追跡

Download on the App Store